Saint Bonnet de Bellac- Haute Vienne - France
Donnes mto: mardi, 15/05/2012
Date Horaire Temp. E. Hum. E. P.atmo. Pluie Vent Direction Direction Ensoleilleme Solaire P. de rose Temp au vent Rafales
15/05/2012 00:00 10,1 C 71 % 1016,6 hPa 0,0 mm 4,0 km/h (1 Bft) SO 225 0 min 0 W/m 5,1 C 10,1 C 10,1 km/h (2 Bft)
15/05/2012 00:10 10,0 C 73 % 1016,7 hPa 0,0 mm 0,0 km/h (0 Bft) O 270 0 min 0 W/m 5,4 C 10,0 C 0,0 km/h (0 Bft)
15/05/2012 00:20 9,9 C 74 % 1016,7 hPa 0,0 mm 0,0 km/h (0 Bft) S-SO 202 0 min 0 W/m 5,5 C 9,9 C 2,9 km/h (1 Bft)
15/05/2012 00:30 9,9 C 77 % 1016,7 hPa 0,0 mm 2,2 km/h (1 Bft) O-NO 292 0 min 0 W/m 6,1 C 9,9 C 4,0 km/h (1 Bft)
15/05/2012 00:40 9,9 C 78 % 1016,7 hPa 0,0 mm 3,2 km/h (1 Bft) O-SO 247 0 min 0 W/m 6,2 C 9,9 C 4,0 km/h (1 Bft)
15/05/2012 00:50 9,8 C 78 % 1016,7 hPa 0,0 mm 1,1 km/h (1 Bft) N-NE 22 0 min 0 W/m 6,1 C 9,8 C 4,0 km/h (1 Bft)
15/05/2012 01:00 9,8 C 78 % 1016,7 hPa 0,0 mm 0,0 km/h (0 Bft) O-SO 247 0 min 0 W/m 6,1 C 9,8 C 1,4 km/h (1 Bft)
15/05/2012 01:10 9,6 C 78 % 1016,7 hPa 0,0 mm 0,7 km/h (0 Bft) O 270 0 min 0 W/m 6,0 C 9,6 C 0,7 km/h (0 Bft)
15/05/2012 01:20 9,4 C 78 % 1016,7 hPa 0,0 mm 2,2 km/h (1 Bft) O 270 0 min 0 W/m 5,8 C 9,4 C 6,8 km/h (2 Bft)
15/05/2012 01:30 9,1 C 78 % 1016,5 hPa 0,0 mm 0,0 km/h (0 Bft) O 270 0 min 0 W/m 5,5 C 9,1 C 0,0 km/h (0 Bft)
15/05/2012 01:40 8,8 C 78 % 1016,5 hPa 0,0 mm 0,0 km/h (0 Bft) O 270 0 min 0 W/m 5,2 C 8,8 C 0,0 km/h (0 Bft)
15/05/2012 01:50 8,5 C 77 % 1016,5 hPa 0,0 mm 0,0 km/h (0 Bft) O 270 0 min 0 W/m 4,7 C 8,5 C 0,0 km/h (0 Bft)
15/05/2012 02:00 8,2 C 76 % 1016,6 hPa 0,0 mm 0,4 km/h (0 Bft) S 180 0 min 0 W/m 4,2 C 8,2 C 0,4 km/h (0 Bft)
15/05/2012 02:10 7,8 C 76 % 1016,6 hPa 0,0 mm 0,4 km/h (0 Bft) O 270 0 min 0 W/m 3,8 C 7,8 C 2,9 km/h (1 Bft)
15/05/2012 02:20 7,5 C 76 % 1016,7 hPa 0,0 mm 0,4 km/h (0 Bft) SO 225 0 min 0 W/m 3,5 C 7,5 C 4,3 km/h (1 Bft)
15/05/2012 02:30 7,3 C 75 % 1016,7 hPa 0,0 mm 0,4 km/h (0 Bft) SO 225 0 min 0 W/m 3,2 C 7,3 C 7,2 km/h (2 Bft)
15/05/2012 02:40 7,1 C 76 % 1016,8 hPa 0,0 mm 0,4 km/h (0 Bft) O-SO 247 0 min 0 W/m 3,2 C 7,1 C 4,0 km/h (1 Bft)
15/05/2012 02:50 6,9 C 75 % 1016,8 hPa 0,0 mm 0,0 km/h (0 Bft) S-SO 202 0 min 0 W/m 2,8 C 6,9 C 0,0 km/h (0 Bft)
15/05/2012 03:02 6,6 C 77 % 1016,6 hPa 0,0 mm 1,8 km/h (1 Bft) SO 225 0 min 0 W/m 2,9 C 6,6 C 4,0 km/h (1 Bft)
15/05/2012 03:10 6,4 C 77 % 1016,5 hPa 0,0 mm 0,7 km/h (0 Bft) S-SO 202 0 min 0 W/m 2,7 C 6,4 C 4,0 km/h (1 Bft)
15/05/2012 03:20 6,3 C 80 % 1016,4 hPa 0,0 mm 4,0 km/h (1 Bft) SO 225 0 min 0 W/m 3,1 C 6,3 C 7,9 km/h (2 Bft)
15/05/2012 03:30 6,1 C 79 % 1016,6 hPa 0,0 mm 0,0 km/h (0 Bft) S 180 0 min 0 W/m 2,7 C 6,1 C 0,0 km/h (0 Bft)
15/05/2012 03:40 5,9 C 80 % 1016,6 hPa 0,0 mm 0,0 km/h (0 Bft) S-SO 202 0 min 0 W/m 2,7 C 5,9 C 0,0 km/h (0 Bft)
15/05/2012 03:50 5,8 C 82 % 1016,7 hPa 0,0 mm 1,8 km/h (1 Bft) SO 225 0 min 0 W/m 3,0 C 5,8 C 3,2 km/h (1 Bft)
15/05/2012 04:00 5,8 C 83 % 1016,7 hPa 0,0 mm 1,4 km/h (1 Bft) S-SO 202 0 min 0 W/m 3,1 C 5,8 C 4,0 km/h (1 Bft)
15/05/2012 04:10 5,7 C 83 % 1016,7 hPa 0,0 mm 1,8 km/h (1 Bft) S-SO 202 0 min 0 W/m 3,0 C 5,7 C 4,0 km/h (1 Bft)
15/05/2012 04:20 5,6 C 83 % 1016,8 hPa 0,0 mm 0,0 km/h (0 Bft) SO 225 0 min 0 W/m 2,9 C 5,6 C 0,0 km/h (0 Bft)
15/05/2012 04:30 5,8 C 85 % 1016,8 hPa 0,0 mm 1,4 km/h (1 Bft) S 180 0 min 0 W/m 3,5 C 5,8 C 3,2 km/h (1 Bft)
15/05/2012 04:40 5,8 C 85 % 1016,9 hPa 0,0 mm 0,0 km/h (0 Bft) S-SE 157 0 min 0 W/m 3,5 C 5,8 C 3,2 km/h (1 Bft)
15/05/2012 04:50 6,1 C 86 % 1016,8 hPa 0,0 mm 0,0 km/h (0 Bft) S 180 0 min 0 W/m 3,9 C 6,1 C 0,0 km/h (0 Bft)
15/05/2012 05:00 6,3 C 87 % 1016,9 hPa 0,0 mm 0,0 km/h (0 Bft) SO 225 0 min 0 W/m 4,3 C 6,3 C 0,0 km/h (0 Bft)
15/05/2012 05:10 6,4 C 87 % 1016,9 hPa 0,0 mm 0,0 km/h (0 Bft) O-SO 247 0 min 0 W/m 4,4 C 6,4 C 3,2 km/h (1 Bft)
15/05/2012 05:20 6,6 C 88 % 1016,9 hPa 0,0 mm 0,0 km/h (0 Bft) N 360 0 min 0 W/m 4,8 C 6,6 C 0,0 km/h (0 Bft)
15/05/2012 05:30 6,8 C 88 % 1017,1 hPa 0,0 mm 2,2 km/h (1 Bft) S-SO 202 0 min 0 W/m 5,0 C 6,8 C 4,3 km/h (1 Bft)
15/05/2012 05:40 6,8 C 88 % 1017,2 hPa 0,0 mm 0,0 km/h (0 Bft) SO 225 0 min 0 W/m 5,0 C 6,8 C 0,0 km/h (0 Bft)
15/05/2012 05:50 6,9 C 88 % 1017,3 hPa 0,0 mm 0,0 km/h (0 Bft) O-SO 247 0 min 0 W/m 5,1 C 6,9 C 0,0 km/h (0 Bft)
15/05/2012 06:00 7,1 C 88 % 1017,3 hPa 0,0 mm 0,0 km/h (0 Bft) O-SO 247 0 min 0 W/m 5,2 C 7,1 C 0,0 km/h (0 Bft)
15/05/2012 06:10 7,1 C 88 % 1017,3 hPa 0,0 mm 0,0 km/h (0 Bft) SO 225 0 min 0 W/m 5,2 C 7,1 C 0,0 km/h (0 Bft)
15/05/2012 06:20 7,1 C 88 % 1017,2 hPa 0,0 mm 0,0 km/h (0 Bft) SO 225 0 min 0 W/m 5,2 C 7,1 C 0,0 km/h (0 Bft)
15/05/2012 06:30 7,2 C 88 % 1017,2 hPa 0,0 mm 2,9 km/h (1 Bft) S-SO 202 0 min 0 W/m 5,3 C 7,2 C 4,3 km/h (1 Bft)
15/05/2012 06:40 7,3 C 89 % 1017,3 hPa 0,0 mm 3,2 km/h (1 Bft) S-SO 202 0 min 0 W/m 5,6 C 7,3 C 6,8 km/h (2 Bft)
15/05/2012 06:50 7,4 C 89 % 1017,3 hPa 0,0 mm 1,1 km/h (1 Bft) SO 225 0 min 0 W/m 5,7 C 7,4 C 3,6 km/h (1 Bft)
15/05/2012 07:00 7,4 C 90 % 1017,3 hPa 0,0 mm 1,1 km/h (1 Bft) S-SO 202 0 min 0 W/m 5,9 C 7,4 C 3,6 km/h (1 Bft)
15/05/2012 07:10 7,4 C 89 % 1017,3 hPa 0,0 mm 3,6 km/h (1 Bft) S-SO 202 0 min 0 W/m 5,7 C 7,4 C 6,8 km/h (2 Bft)
15/05/2012 07:20 7,5 C 89 % 1017,3 hPa 0,0 mm 0,7 km/h (0 Bft) SO 225 0 min 0 W/m 5,8 C 7,5 C 0,7 km/h (0 Bft)
15/05/2012 07:30 7,6 C 89 % 1017,6 hPa 0,0 mm 0,0 km/h (0 Bft) O 270 0 min 0 W/m 5,9 C 7,6 C 0,0 km/h (0 Bft)
15/05/2012 07:40 7,7 C 89 % 1017,6 hPa 0,0 mm 0,4 km/h (0 Bft) SO 225 0 min 0 W/m 6,0 C 7,7 C 0,4 km/h (0 Bft)
15/05/2012 07:50 7,8 C 90 % 1017,5 hPa 0,0 mm 3,6 km/h (1 Bft) SO 225 0 min 0 W/m 6,3 C 7,8 C 4,3 km/h (1 Bft)
15/05/2012 08:00 8,0 C 90 % 1017,5 hPa 0,0 mm 2,2 km/h (1 Bft) SO 225 0 min 0 W/m 6,5 C 8,0 C 4,3 km/h (1 Bft)
15/05/2012 08:10 8,2 C 89 % 1017,6 hPa 0,0 mm 0,0 km/h (0 Bft) SO 225 0 min 0 W/m 6,5 C 8,2 C 1,4 km/h (1 Bft)
15/05/2012 08:20 8,6 C 89 % 1017,8 hPa 0,0 mm 1,1 km/h (1 Bft) SO 225 0 min 0 W/m 6,9 C 8,6 C 1,1 km/h (1 Bft)
15/05/2012 08:30 8,9 C 89 % 1017,8 hPa 0,0 mm 0,4 km/h (0 Bft) O 270 0 min 0 W/m 7,2 C 8,9 C 0,4 km/h (0 Bft)
15/05/2012 08:40 9,2 C 88 % 1017,6 hPa 0,0 mm 2,2 km/h (1 Bft) O-SO 247 0 min 0 W/m 7,3 C 9,2 C 4,3 km/h (1 Bft)
15/05/2012 08:50 9,3 C 87 % 1017,5 hPa 0,0 mm 0,0 km/h (0 Bft) O-SO 247 0 min 0 W/m 7,2 C 9,3 C 0,0 km/h (0 Bft)
15/05/2012 09:00 9,6 C 87 % 1017,5 hPa 0,0 mm 0,0 km/h (0 Bft) O 270 0 min 0 W/m 7,5 C 9,6 C 0,0 km/h (0 Bft)
15/05/2012 09:10 9,9 C 86 % 1017,7 hPa 0,0 mm 0,7 km/h (0 Bft) O 270 0 min 0 W/m 7,7 C 9,9 C 4,3 km/h (1 Bft)
15/05/2012 09:20 10,1 C 84 % 1017,7 hPa 0,0 mm 7,6 km/h (2 Bft) O 270 0 min 0 W/m 7,5 C 10,1 C 19,4 km/h (3 Bft)
15/05/2012 09:30 10,1 C 84 % 1017,8 hPa 0,0 mm 1,1 km/h (1 Bft) O 270 0 min 0 W/m 7,5 C 10,1 C 4,0 km/h (1 Bft)
15/05/2012 09:40 10,1 C 83 % 1017,8 hPa 0,0 mm 0,4 km/h (0 Bft) O 270 0 min 0 W/m 7,3 C 10,1 C 3,2 km/h (1 Bft)
15/05/2012 09:50 10,2 C 83 % 1018,0 hPa 0,0 mm 4,7 km/h (1 Bft) O 270 0 min 0 W/m 7,4 C 10,2 C 7,9 km/h (2 Bft)
15/05/2012 10:00 10,2 C 83 % 1017,9 hPa 0,0 mm 1,8 km/h (1 Bft) O 270 0 min 0 W/m 7,4 C 10,2 C 7,9 km/h (2 Bft)
15/05/2012 10:10 10,2 C 83 % 1018,0 hPa 0,0 mm 2,2 km/h (1 Bft) O 270 0 min 0 W/m 7,4 C 10,2 C 2,2 km/h (1 Bft)
15/05/2012 10:20 10,3 C 83 % 1018,0 hPa 0,0 mm 2,5 km/h (1 Bft) N-NO 337 0 min 0 W/m 7,5 C 10,3 C 7,6 km/h (2 Bft)
15/05/2012 10:30 10,5 C 81 % 1017,8 hPa 0,0 mm 6,5 km/h (2 Bft) N-NO 337 0 min 0 W/m 7,4 C 10,5 C 14,4 km/h (3 Bft)
15/05/2012 10:40 10,8 C 80 % 1017,9 hPa 0,0 mm 8,6 km/h (2 Bft) S-SO 202 0 min 0 W/m 7,5 C 10,8 C 13,7 km/h (3 Bft)
15/05/2012 10:50 10,9 C 78 % 1018,0 hPa 0,0 mm 6,1 km/h (2 Bft) NO 315 0 min 0 W/m 7,2 C 10,9 C 8,6 km/h (2 Bft)
15/05/2012 11:00 11,1 C 77 % 1018,0 hPa 0,0 mm 0,0 km/h (0 Bft) O 270 0 min 0 W/m 7,2 C 11,1 C 2,9 km/h (1 Bft)
15/05/2012 11:10 11,4 C 75 % 1017,9 hPa 0,0 mm 4,0 km/h (1 Bft) N 360 0 min 0 W/m 7,1 C 11,4 C 7,2 km/h (2 Bft)
15/05/2012 11:20 11,8 C 70 % 1018,0 hPa 0,0 mm 7,2 km/h (2 Bft) O-SO 247 0 min 0 W/m 6,5 C 11,8 C 15,8 km/h (3 Bft)
15/05/2012 11:30 12,6 C 69 % 1017,8 hPa 0,0 mm 6,8 km/h (2 Bft) O-NO 292 0 min 0 W/m 7,1 C 12,6 C 11,5 km/h (2 Bft)
15/05/2012 11:40 13,1 C 59 % 1018,1 hPa 0,0 mm 6,5 km/h (2 Bft) O 270 0 min 0 W/m 5,3 C 13,1 C 7,2 km/h (2 Bft)
15/05/2012 11:50 13,7 C 61 % 1018,2 hPa 0,0 mm 6,1 km/h (2 Bft) O-NO 292 0 min 0 W/m 6,3 C 13,7 C 11,9 km/h (2 Bft)
15/05/2012 12:00 13,8 C 59 % 1018,1 hPa 0,0 mm 7,2 km/h (2 Bft) N-NO 337 0 min 0 W/m 5,9 C 13,8 C 12,6 km/h (3 Bft)
15/05/2012 12:10 13,8 C 58 % 1018,2 hPa 0,0 mm 4,0 km/h (1 Bft) O-NO 292 0 min 0 W/m 5,7 C 13,8 C 11,2 km/h (2 Bft)
15/05/2012 12:20 13,5 C 56 % 1018,2 hPa 0,0 mm 7,6 km/h (2 Bft) SO 225 0 min 0 W/m 4,9 C 13,5 C 8,3 km/h (2 Bft)
15/05/2012 12:30 13,6 C 56 % 1018,3 hPa 0,0 mm 4,7 km/h (1 Bft) O 270 0 min 0 W/m 5,0 C 13,6 C 5,8 km/h (2 Bft)
15/05/2012 12:40 14,0 C 56 % 1018,4 hPa 0,0 mm 4,3 km/h (1 Bft) S 180 0 min 0 W/m 5,4 C 14,0 C 16,2 km/h (3 Bft)
15/05/2012 12:50 14,4 C 56 % 1018,3 hPa 0,0 mm 5,0 km/h (1 Bft) N-NO 337 0 min 0 W/m 5,7 C 14,4 C 9,4 km/h (2 Bft)
15/05/2012 13:00 14,4 C 55 % 1018,2 hPa 0,0 mm 4,3 km/h (1 Bft) S 180 0 min 0 W/m 5,5 C 14,4 C 15,1 km/h (3 Bft)
15/05/2012 13:10 14,5 C 54 % 1018,3 hPa 0,0 mm 6,1 km/h (2 Bft) O-NO 292 0 min 0 W/m 5,3 C 14,5 C 10,1 km/h (2 Bft)
15/05/2012 13:20 14,4 C 50 % 1018,4 hPa 0,0 mm 5,8 km/h (2 Bft) O-SO 247 0 min 0 W/m 4,1 C 14,4 C 14,0 km/h (3 Bft)
15/05/2012 13:30 14,3 C 54 % 1018,2 hPa 0,0 mm 6,8 km/h (2 Bft) O-NO 292 0 min 0 W/m 5,1 C 14,3 C 18,0 km/h (3 Bft)
15/05/2012 13:40 14,3 C 49 % 1018,3 hPa 0,0 mm 12,6 km/h (3 Bft) O 270 0 min 0 W/m 3,7 C 14,3 C 14,8 km/h (3 Bft)
15/05/2012 13:50 14,3 C 52 % 1018,2 hPa 0,0 mm 5,8 km/h (2 Bft) O-NO 292 0 min 0 W/m 4,6 C 14,3 C 9,0 km/h (2 Bft)
15/05/2012 14:00 14,6 C 51 % 1018,2 hPa 0,0 mm 7,6 km/h (2 Bft) O 270 0 min 0 W/m 4,6 C 14,6 C 11,9 km/h (2 Bft)
15/05/2012 14:10 14,9 C 51 % 1018,2 hPa 0,0 mm 6,5 km/h (2 Bft) O 270 0 min 0 W/m 4,9 C 14,9 C 6,8 km/h (2 Bft)
15/05/2012 14:20 14,8 C 52 % 1018,2 hPa 0,0 mm 6,5 km/h (2 Bft) NO 315 0 min 0 W/m 5,0 C 14,8 C 12,6 km/h (3 Bft)
15/05/2012 14:30 14,6 C 51 % 1018,2 hPa 0,0 mm 7,6 km/h (2 Bft) O-NO 292 0 min 0 W/m 4,6 C 14,6 C 14,0 km/h (3 Bft)
15/05/2012 14:40 14,8 C 51 % 1018,2 hPa 0,0 mm 9,4 km/h (2 Bft) O-SO 247 0 min 0 W/m 4,8 C 14,8 C 18,7 km/h (3 Bft)
15/05/2012 14:50 15,1 C 49 % 1018,1 hPa 0,0 mm 11,5 km/h (2 Bft) O-SO 247 0 min 0 W/m 4,5 C 15,1 C 23,0 km/h (4 Bft)
15/05/2012 15:00 15,1 C 47 % 1018,1 hPa 0,0 mm 11,2 km/h (2 Bft) O 270 0 min 0 W/m 3,9 C 15,1 C 28,1 km/h (5 Bft)
15/05/2012 15:10 15,3 C 48 % 1018,2 hPa 0,0 mm 5,4 km/h (2 Bft) NO 315 0 min 0 W/m 4,4 C 15,3 C 5,4 km/h (2 Bft)
15/05/2012 15:20 15,4 C 47 % 1018,1 hPa 0,0 mm 3,6 km/h (1 Bft) S 180 0 min 0 W/m 4,1 C 15,4 C 7,9 km/h (2 Bft)
15/05/2012 15:30 15,2 C 47 % 1018,1 hPa 0,0 mm 8,3 km/h (2 Bft) O-SO 247 0 min 0 W/m 4,0 C 15,2 C 15,1 km/h (3 Bft)
15/05/2012 15:40 14,9 C 50 % 1018,1 hPa 0,0 mm 11,9 km/h (2 Bft) N-NO 337 0 min 0 W/m 4,6 C 14,9 C 23,8 km/h (4 Bft)
15/05/2012 15:50 15,2 C 48 % 1018,0 hPa 0,0 mm 11,9 km/h (2 Bft) O 270 0 min 0 W/m 4,3 C 15,2 C 23,4 km/h (4 Bft)
15/05/2012 16:00 15,5 C 47 % 1017,9 hPa 0,0 mm 7,9 km/h (2 Bft) S-SO 202 0 min 0 W/m 4,2 C 15,5 C 15,1 km/h (3 Bft)
15/05/2012 16:10 15,6 C 47 % 1017,7 hPa 0,0 mm 7,6 km/h (2 Bft) SO 225 0 min 0 W/m 4,3 C 15,6 C 10,1 km/h (2 Bft)
15/05/2012 16:20 15,3 C 47 % 1017,9 hPa 0,0 mm 4,7 km/h (1 Bft) O-SO 247 0 min 0 W/m 4,1 C 15,3 C 19,4 km/h (3 Bft)
15/05/2012 16:30 14,9 C 48 % 1018,0 hPa 0,0 mm 11,9 km/h (2 Bft) O-NO 292 0 min 0 W/m 4,0 C 14,9 C 22,3 km/h (4 Bft)
15/05/2012 16:40 14,2 C 48 % 1018,0 hPa 0,0 mm 3,6 km/h (1 Bft) NO 315 0 min 0 W/m 3,4 C 14,2 C 8,3 km/h (2 Bft)
15/05/2012 16:50 13,9 C 51 % 1018,2 hPa 0,0 mm 8,3 km/h (2 Bft) N-NO 337 0 min 0 W/m 3,9 C 13,9 C 14,0 km/h (3 Bft)
15/05/2012 17:00 13,7 C 53 % 1018,3 hPa 0,0 mm 18,0 km/h (3 Bft) N-NO 337 0 min 0 W/m 4,3 C 13,7 C 20,2 km/h (4 Bft)
15/05/2012 17:10 13,5 C 55 % 1018,5 hPa 0,0 mm 7,2 km/h (2 Bft) NO 315 0 min 0 W/m 4,6 C 13,5 C 11,5 km/h (2 Bft)
15/05/2012 17:20 13,4 C 56 % 1018,5 hPa 0,0 mm 10,8 km/h (2 Bft) N-NO 337 0 min 0 W/m 4,8 C 13,4 C 13,0 km/h (3 Bft)
15/05/2012 17:30 13,4 C 59 % 1018,7 hPa 0,0 mm 4,7 km/h (1 Bft) N-NO 337 0 min 0 W/m 5,6 C 13,4 C 11,2 km/h (2 Bft)
15/05/2012 17:40 13,4 C 60 % 1018,8 hPa 0,0 mm 10,4 km/h (2 Bft) NO 315 0 min 0 W/m 5,8 C 13,4 C 14,0 km/h (3 Bft)
15/05/2012 17:50 13,4 C 62 % 1018,9 hPa 0,0 mm 6,8 km/h (2 Bft) N-NO 337 0 min 0 W/m 6,3 C 13,4 C 9,0 km/h (2 Bft)
15/05/2012 18:00 13,3 C 60 % 1018,9 hPa 0,0 mm 5,8 km/h (2 Bft) N-NO 337 0 min 0 W/m 5,7 C 13,3 C 14,4 km/h (3 Bft)
15/05/2012 18:10 13,1 C 59 % 1019,0 hPa 0,0 mm 7,2 km/h (2 Bft) O-NO 292 0 min 0 W/m 5,3 C 13,1 C 17,3 km/h (3 Bft)
15/05/2012 18:20 12,8 C 59 % 1019,0 hPa 0,0 mm 4,7 km/h (1 Bft) N-NO 337 0 min 0 W/m 5,0 C 12,8 C 11,5 km/h (2 Bft)
15/05/2012 18:30 12,4 C 60 % 1019,1 hPa 0,0 mm 4,3 km/h (1 Bft) NO 315 0 min 0 W/m 4,9 C 12,4 C 7,9 km/h (2 Bft)
15/05/2012 18:40 12,1 C 61 % 1019,2 hPa 0,0 mm 2,9 km/h (1 Bft) NO 315 0 min 0 W/m 4,8 C 12,1 C 9,4 km/h (2 Bft)
15/05/2012 18:50 11,8 C 62 % 1019,3 hPa 0,0 mm 7,2 km/h (2 Bft) NE 45 0 min 0 W/m 4,8 C 11,8 C 7,2 km/h (2 Bft)
15/05/2012 19:00 11,6 C 64 % 1019,3 hPa 0,0 mm 4,3 km/h (1 Bft) NO 315 0 min 0 W/m 5,0 C 11,6 C 10,8 km/h (2 Bft)
15/05/2012 19:10 11,7 C 65 % 1019,3 hPa 0,0 mm 1,8 km/h (1 Bft) O 270 0 min 0 W/m 5,3 C 11,7 C 4,7 km/h (1 Bft)
15/05/2012 19:20 11,9 C 64 % 1019,4 hPa 0,0 mm 0,0 km/h (0 Bft) S-SE 157 0 min 0 W/m 5,3 C 11,9 C 4,0 km/h (1 Bft)
15/05/2012 19:30 12,2 C 65 % 1019,4 hPa 0,0 mm 10,4 km/h (2 Bft) NO 315 0 min 0 W/m 5,8 C 12,2 C 13,3 km/h (3 Bft)
15/05/2012 19:40 12,4 C 61 % 1019,5 hPa 0,0 mm 10,8 km/h (2 Bft) N-NO 337 0 min 0 W/m 5,1 C 12,4 C 14,4 km/h (3 Bft)
15/05/2012 19:50 12,5 C 60 % 1019,5 hPa 0,0 mm 1,8 km/h (1 Bft) NE 45 0 min 0 W/m 5,0 C 12,5 C 1,8 km/h (1 Bft)
15/05/2012 20:00 12,4 C 60 % 1019,7 hPa 0,0 mm 8,6 km/h (2 Bft) NO 315 0 min 0 W/m 4,9 C 12,4 C 15,8 km/h (3 Bft)
15/05/2012 20:10 12,1 C 59 % 1019,7 hPa 0,0 mm 5,4 km/h (2 Bft) NO 315 0 min 0 W/m 4,3 C 12,1 C 9,0 km/h (2 Bft)
15/05/2012 20:20 11,7 C 58 % 1019,9 hPa 0,0 mm 5,4 km/h (2 Bft) NO 315 0 min 0 W/m 3,7 C 11,7 C 9,4 km/h (2 Bft)
15/05/2012 20:30 11,4 C 55 % 1020,1 hPa 0,0 mm 5,0 km/h (1 Bft) NO 315 0 min 0 W/m 2,7 C 11,4 C 12,6 km/h (3 Bft)
15/05/2012 20:40 11,1 C 54 % 1020,2 hPa 0,0 mm 4,3 km/h (1 Bft) NO 315 0 min 0 W/m 2,2 C 11,1 C 9,4 km/h (2 Bft)
15/05/2012 20:50 10,8 C 52 % 1020,3 hPa 0,0 mm 4,7 km/h (1 Bft) NO 315 0 min 0 W/m 1,3 C 10,8 C 14,4 km/h (3 Bft)
15/05/2012 21:00 10,5 C 51 % 1020,5 hPa 0,0 mm 6,1 km/h (2 Bft) NO 315 0 min 0 W/m 0,8 C 10,5 C 7,6 km/h (2 Bft)
15/05/2012 21:10 10,1 C 52 % 1020,6 hPa 0,0 mm 3,2 km/h (1 Bft) NO 315 0 min 0 W/m 0,7 C 10,1 C 7,2 km/h (2 Bft)
15/05/2012 21:20 9,7 C 53 % 1020,8 hPa 0,0 mm 2,9 km/h (1 Bft) NO 315 0 min 0 W/m 0,6 C 9,7 C 6,1 km/h (2 Bft)
15/05/2012 21:30 9,3 C 54 % 1020,9 hPa 0,0 mm 7,6 km/h (2 Bft) O-NO 292 0 min 0 W/m 0,5 C 8,3 C 7,6 km/h (2 Bft)
15/05/2012 21:40 8,9 C 55 % 1021,1 hPa 0,0 mm 2,9 km/h (1 Bft) N-NO 337 0 min 0 W/m 0,4 C 8,9 C 8,3 km/h (2 Bft)
15/05/2012 21:50 8,6 C 56 % 1021,3 hPa 0,0 mm 1,4 km/h (1 Bft) NO 315 0 min 0 W/m 0,3 C 8,6 C 4,3 km/h (1 Bft)
15/05/2012 22:00 8,2 C 57 % 1021,7 hPa 0,0 mm 0,0 km/h (0 Bft) NO 315 0 min 0 W/m 0,2 C 8,2 C 0,0 km/h (0 Bft)
15/05/2012 22:10 7,8 C 58 % 1021,8 hPa 0,0 mm 5,4 km/h (2 Bft) NO 315 0 min 0 W/m 0,1 C 7,1 C 10,1 km/h (2 Bft)
15/05/2012 22:20 7,4 C 60 % 1021,9 hPa 0,0 mm 5,4 km/h (2 Bft) N-NO 337 0 min 0 W/m 0,2 C 6,7 C 9,4 km/h (2 Bft)
_ Min-Heure 04:20 16:20 03:20 - 22:00 - - - - 22:10 04:20 22:00
Minimum _ 5,6 C 47 % 1016,4 hPa - 0,0 km/h (0 Bft) - - - - 0,1 C 5,6 C 0,0 km/h (0 Bft)
_ Max-Heure 16:10 08:00 22:20 22:20 17:00 - - 22:20 22:20 09:10 16:10 15:00
Maximum _ 15,6 C 90 % 1021,9 hPa 0,0 mm 18,0 km/h
N-NO (3 Bft)
- - 0 min 0 W/m 7,7 C 15,6 C 28,1 km/h
O (5 Bft)
Moyenne _ 10,6 C 69 % 1018,1 hPa #0,0 mm 3,9 km/h (1 Bft) O - #0 min. 0 W/m 4,8 C 10,5 C 7,7 km/h (2 Bft)
Saint Bonnet de Bellac- Haute Vienne - France